Details From VTBS - Bangkok Suvarnabhumi Intl
To VDPP - Phnom Penh Intl
Flight Number -
Tags generated
Created
Modified
Stats Distance 273 nm / 506 km
Max Altitude 34,600 ft / 10,546 m
Waypoints 5
Social Downloads 1
Likes 0
Share VATSIM

Download

Looking for another format? Having issues loading an existing format? Contact us
Advertisement - Login to hide

Notes

Basic altitude profile: - Ascent Rate: 2500ft/min - Ascent Speed: 250kts - Cruise Altitude: 35000ft - Cruise Speed: 420kts - Descent Rate: 1500ft/min - Descent Speed: 250kts Options: - Use NATs: yes - Use PACOTS: yes - Use low airways: yes - Use high airways: yes

Route

VTBS GOMES R468 PNH VDPP

ID Type Via Altitude Latitude Longitude Leg Dist Tot Dist Heading (true) Name
O VTBS APT - 0 ft / 0 m 13.68046˚ 100.74751˚ - 0 nm - Bangkok Suvarnabhumi Intl
GOMES FIX - 18,400 ft / 5,608 m 13.40171˚ 101.58492˚ 51 nm 51 nm 109° / 109° -
BOKAK FIX R468 (AWY-LO) 34,600 ft / 10,546 m 12.96008˚ 102.49649˚ 59 nm 111 nm 116° / 117° -
PNH VOR R468 (AWY-LO) 0 ft / 0 m 11.54667˚ 104.84167˚ 161 nm 272 nm 121° / 122° PHNOM PENH VOR-DME
O VDPP APT - 0 ft / 0 m 11.54654˚ 104.84414˚ 0 nm 273 nm 93° / 93° Phnom Penh Intl

Altitude Profile

Advertisement - Login to hide

Weather


0- 5 10 15 20 25 30 35+ Temperature / ° C

Clouds and Precipitation
Forecast for 2018-06-23 18:00 UTC. Updated 4 hours ago

Ground ~20,000 ft ~40,000 ft Winds

VTBS

Details ICAO VTBS (BKK)
Name Bangkok Suvarnabhumi Intl
Region Thailand
Timezone Asia/Bangkok (UTC+7.0)
Stats Elevation 5 ft / 2 m (AMSL)
Location 13.680456° 100.747512°
Runways 2
Magnetic Variation 0.568° W

METAR

VTBS 231930Z 27007KT 9999 FEW020CB 29/23 Q1007 NOSIG

Decode

TAF

TAF VTBS 231700Z 2318/2424 20005KT 9999 FEW020 BECMG 2320/2322 26005KT BECMG 2402/2404 20008KT TEMPO 2406/2412 VRB10KT 5000 TSRA FEW018CB SCT030 BKN100 TEMPO 2416/2420 VRB10KT 5000 TSRA FEW018CB SCT030 BKN100 BECMG 2420/2422 26005KT

Decode

Departure Runways

ID Width Length Bearing (true) Bearing (mag) Surface Threshold Offset Overrun Length
01L 200 ft / 61 m 12,194 ft / 3,717 m 14.26° 14.83° Asphalt 0 ft / 0 m 400 ft / 122 m
01R 200 ft / 61 m 13,181 ft / 4,018 m 14.19° 14.76° Asphalt 0 ft / 0 m 400 ft / 122 m
19L 200 ft / 61 m 13,181 ft / 4,018 m 194.19° 194.76° Asphalt 0 ft / 0 m 400 ft / 122 m
19R 200 ft / 61 m 12,194 ft / 3,717 m 194.26° 194.83° Asphalt 0 ft / 0 m 400 ft / 122 m

VDPP

Details ICAO VDPP (PNH)
Name Phnom Penh Intl
Region Cambodia
Timezone Asia/Phnom_Penh (UTC+7.0)
Stats Elevation 40 ft / 12 m (AMSL)
Location 11.546542° 104.844142°
Runways 1
Magnetic Variation 0.502° W

METAR

VDPP 231930Z 21007KT 9000 FEW017 SCT040 27/25 Q1006

Decode

TAF

TAF VDPP 231700Z 2318/2412 22007KT 9000 SCT015 SCT040= TAF VDSR 231700Z 2318/2412 17006KT 9999 SCT015

Decode

Destination Runways

ID Width Length Bearing (true) Bearing (mag) Surface Threshold Offset Overrun Length
05 144 ft / 44 m 9,815 ft / 2,992 m 45.61° 46.11° Asphalt 400 ft / 122 m 0 ft / 0 m
23 144 ft / 44 m 9,815 ft / 2,992 m 225.61° 226.11° Asphalt 492 ft / 150 m 0 ft / 0 m

Approach Navaids

Runway Type Ident Frequency Range Bearing (true) Bearing (mag) Slope Elevation
23 Localiser IPNP 109.70 MHz 18 nm / 33 km 225.62° 226.12° - 40 ft / 12 m (AMSL)
23 Glidescope IPNP 109.70 MHz 10 nm / 19 km 225.61° 226.11° 3.00° 37 ft / 11 m (AMSL)

Popular Alternatives